Inversion Research: Below Escarpment

*Note: All times are displayed in the local standard time of the station location.
**Rain - Equipment is designed to accurately record liquid precipitation; under conditions when precipitation is not in liquid form, the data displayed may not properly reflect rainfall values.

Date Max Temp
(°C)
Min Temp
(°C)
Avg Temp
(°C)
Rain (mm) Avg RH (%)
Sun, Dec 10, 2017 -0.4 -2.2 -1.3 - 77.3
Sat, Dec 09, 2017 1.3 -3.3 -0.4 - 69.6
Fri, Dec 08, 2017 0.6 -4.2 -1.3 - 68.4
Thu, Dec 07, 2017 1.6 -2.9 -0.2 - 68.8
Wed, Dec 06, 2017 4.3 -0.4 2.0 - 60.6
Tue, Dec 05, 2017 12.1 1.2 8.2 - 78.2
Mon, Dec 04, 2017 11.8 -3.6 5.4 - 78.3
DateTime Avg Temp (°C) Rain (mm) RH (%)
Mon, Dec 11, 2017 02:00 -1.8 - 90.5
Mon, Dec 11, 2017 01:00 -1.1 - 82.5
Mon, Dec 11, 2017 00:00 -1.5 - 80.5
Sun, Dec 10, 2017 23:00 -1.7 - 78.8
Sun, Dec 10, 2017 22:00 -1.6 - 77.8
Sun, Dec 10, 2017 21:00 -1.5 - 75.5
Sun, Dec 10, 2017 20:00 -1.4 - 73.8
Sun, Dec 10, 2017 19:00 -1.2 - 69.3
Sun, Dec 10, 2017 18:00 -1.1 - 69.0
Sun, Dec 10, 2017 17:00 -1.1 - 73.0
Sun, Dec 10, 2017 16:00 -0.9 - 72.8
Sun, Dec 10, 2017 15:00 -0.8 - 72.5
Sun, Dec 10, 2017 14:00 -0.9 - 72.5
Sun, Dec 10, 2017 13:00 -1.0 - 72.3
Sun, Dec 10, 2017 12:00 -1.0 - 68.3
Sun, Dec 10, 2017 11:00 -1.4 - 69.3
Sun, Dec 10, 2017 10:00 -1.8 - 70.3
Sun, Dec 10, 2017 09:00 -2.1 - 68.3
Sun, Dec 10, 2017 08:00 -1.9 - 74.3
Sun, Dec 10, 2017 07:00 -1.2 - 77.0
Sun, Dec 10, 2017 06:00 -0.8 - 76.0
Sun, Dec 10, 2017 05:00 -0.5 - 85.3
Sun, Dec 10, 2017 04:00 -1.1 - 95.0
Sun, Dec 10, 2017 03:00 -1.6 - 94.0
Sun, Dec 10, 2017 02:00 -1.7 - 93.0
Sun, Dec 10, 2017 01:00 -1.6 - 96.0
Sun, Dec 10, 2017 00:00 -2.7 - 96.8
Sat, Dec 09, 2017 23:00 -2.9 - 92.3
Sat, Dec 09, 2017 22:00 -2.2 - 85.5
Sat, Dec 09, 2017 21:00 -0.9 - 76.0
Sat, Dec 09, 2017 20:00 -0.2 - 71.3
Sat, Dec 09, 2017 19:00 -1.2 - 76.0
Sat, Dec 09, 2017 18:00 -0.8 - 69.0
Sat, Dec 09, 2017 17:00 0.1 - 61.8
Sat, Dec 09, 2017 16:00 0.9 - 58.8
Sat, Dec 09, 2017 15:00 1.1 - 56.0
Sat, Dec 09, 2017 14:00 1.2 - 57.5
Sat, Dec 09, 2017 13:00 1.0 - 58.3
Sat, Dec 09, 2017 12:00 1.0 - 59.5
Sat, Dec 09, 2017 11:00 0.5 - 65.0
Sat, Dec 09, 2017 10:00 -0.6 - 70.3
Sat, Dec 09, 2017 09:00 -1.5 - 75.3
Sat, Dec 09, 2017 08:00 -1.6 - 77.3
Sat, Dec 09, 2017 07:00 -0.2 - 78.5
Sat, Dec 09, 2017 06:00 -0.2 - 76.3
Sat, Dec 09, 2017 05:00 -0.2 - 66.3
Sat, Dec 09, 2017 04:00 -0.2 - 61.0
Sat, Dec 09, 2017 03:00 -0.2 - 60.0


asterix Register now to access more data! asterix